Location: Gradaro
(45.0833°N, 10.8833°E)
Time: 22:47:03
(UTC+00:00)

Cosmos 2263 Rocket - Pass Details

Date: 26 April 2021
Orbit: 824 x 848 km, 71.0° (Epoch: 14 May)

Event Time Altitude Azimuth Distance (km) Brightness Sun altitude
Exits shadow 19:23:58 15° 127° (SE) 2,069 3.6 -11.5°
Maximum altitude 19:26:06 19° 100° (E) 1,882 3.5 -11.8°
Drops below altitude 10° 19:29:51 10° 57° (ENE) 2,432 4.4 -12.3°
Sets 19:32:57 0° 40° (NE) 3,373 5.3 -12.8°
